Погода в Мокшине

Россия / Тверская область     56°34′44″N   36°30′17″E
темп.,
°C
ветер,
м/с
пор.,
м/с
влажн.,
%
обл.,
%
осадки,
мм/ч
давл.,
гПа
погр.,
м
10 мая, пн
пн1000:00+3сз26783 0.0 102293
03:00+1ссз23810 0.0 102546
06:00+3с13719 0.0 102686
09:00+9ссз35430 0.0 1027660
12:00+13ссв34345 0.0 10271449
15:00+15ссв34335 0.0 10271534
18:00+14св23435 0.0 10271011
21:00+7в22705 0.0 102925
11 мая, вт
вт1100:00+5в22733 0.0 102920
03:00+4св227841 0.0 103010
06:00+5всв247669 0.0 1030114
09:00+12всв365298 0.0 1029553
12:00+16всв4538100 0.0 10281038
15:00+19всв453882 0.0 10271127
18:00+18всв355511 0.0 1027863
21:00+12всв38845 0.0 1027134
12 мая, ср
ср1200:00+10в27950 0.0 1027125
03:00+10в239744 0.0 102747
06:00+11всв129540 0.0 102776
09:00+17всв367548 0.0 1026544
12:00+21в6954100 0.5 10231692
15:00+22в6115144 0.6 10222084
18:00+17вюв5127574 1.1 1021894
21:00+14вюв398978 1.1 1021360
13 мая, чт
чт1300:00+13вюв279828 0.4 1021317
03:00+13в2797100 0.4 1021261
06:00+13в4109696 0.4 1019570
09:00+14вюв3994100 1.3 1019740
12:00+15юв3685100 0.8 1018757
15:00+18вюв356368 0.9 10171258
18:00+17юв36733 0.4 1017365
21:00+12вюв389595 0.6 1018164
14 мая, пт
пт1400:00+11юв2596100 0.0 101898
03:00+11вюв2497100 0.0 101978
06:00+12вюв279591 0.0 1018208
09:00+18юв477113 0.0 1017645
12:00+21юв5754100 0.0 10161658
15:00+22юв5753100 0.1 10141913
18:00+18ююв3783100 1.4 1013211
21:00+15юв31193100 6.4 1012328